User: anonymous   Login
Location: Caltech
(34.1382°N, 118.1253°W)
Time: 00:14:07
(UTC-07:00)
Language:

Cosmos 1733 Rocket - Orbit

View from above orbital plane
View from above orbital plane
View from above satellite
View from above satellite

Ground track
Ground track

The orbit data is extracted from the following two-line orbital elements,

1 16612U 86018B   17149.61904411 +.00000090 +00000-0 +79413-5 0  9995
2 16612 082.5152 313.8471 0016878 210.1243 196.4192 14.84148165567609
Epoch (UTC): 29 May 2017 14:51:25
Eccentricity: 0.0016878
inclination: 82.5152°
perigee height: 604 km
apogee height: 628 km
right ascension of ascending node: 313.8471°
argument of perigee: 210.1243°
revolutions per day: 14.84148165
mean anomaly at epoch: 196.4192°
orbit number at epoch: 56760

The dashed part of the orbit path shows where the satellite is in the earth's shadow,  

DLR